Regional Weather Roundup
Issued by NWS Charleston, SC

Home | Current Version | Previous Version | Text Only | Print | Product List | Glossary On
Versions: 1 2 3 4 5 6 7 8 9 10 11 12 13 14 15 16 17 18 19 20 21 22 23 24 25 26 27 28 29 30 31 32 33 34 35 36 37 38 39 40 41 42 43 44 45 46 47 48 49 50
000
ASUS42 KCHS 270327
RWRCHS

Regional Weather Roundup
National Weather Service Charleston SC
1100 PM EDT SAT MAY 26 2018

NOTE: "fair" indicates few or no clouds below 12,000 feet with no
significant weather and/or obstructions to visibility.

Not all stations are quality controlled. Use data with caution,
especially dewpoint observations.

SCZ027-030-031-034>040-042>050-270400-
...Southeast South Carolina...

CITY           SKY/WX    TMP DP  RH WIND       PRES   REMARKS
N Charleston   FAIR      75  71  87 S7        29.99R
Waterfront Prk   N/A     78  72  81 S8        29.83R
Mount Pleasant FAIR      73  72  94 S5        30.00R
Johns Island   FAIR      75  72  88 S7        29.99S
Pinopolis        N/A     75  72  88 CALM      29.92R
Moncks Corner  FAIR      70  68  94 CALM      29.99S
Summerville    FAIR      70  70 100 CALM      30.00S
Beaufort MCAS  MOCLDY    78  73  84 CALM      29.98R
Beaufort Arpt  FAIR      73  70  88 CALM      29.98S
Hilton Head Is FAIR      77  72  83 VRB6      29.99R
Walterboro     FAIR      70  68  94 CALM      30.00S
Allendale      FAIR      73  70  88 SE3       29.97S

...Southern Midlands and Pee Dee...

CITY           SKY/WX    TMP DP  RH WIND       PRES   REMARKS
Georgetown     FAIR     N/A N/A N/A CALM      30.01S
Kingstree      FAIR      72  70  94 SE3       29.99S
Orangeburg     FAIR      73  68  84 S6        29.99R
Barnwell       FAIR      73  70  88 S6        29.98S
Aiken          FAIR      72  70  94 SE6       30.01R
Manning        FAIR      72  66  83 S3        29.99S
Columbia       MOCLDY    77  73  87 S6        29.97R
Sumter         FAIR      75  69  81 S7        29.96R
Florence       FAIR      75  69  81 S5        29.99R
Myrtle Beach   FAIR      76  73  91 S8        30.01S
N Myrtle Beach FAIR      77  73  87 S12       30.00S

$$

GAZ063-065-086>088-099>101-113>116-118-119-134>141-150-270400-
...Southeast Georgia...

CITY           SKY/WX    TMP DP  RH WIND       PRES   REMARKS
Savannah Arpt  FAIR      75  70  84 SE6       29.97S
Hunter AAF     FAIR      76  70  81 SE6       29.95R
Fort Stewart   FAIR      72  69  90 CALM      29.94S
Statesboro     FAIR      73  68  86 CALM      29.97S
Sylvania       FAIR      73  70  92 CALM      29.99R
Claxton        FAIR      72  71  96 CALM      29.97S

...CSRA, Central and far Southeast Georgia...

CITY           SKY/WX    TMP DP  RH WIND       PRES   REMARKS
Thomson        MOCLDY    74  71  91 W3        30.02R
Augusta-Bush   FAIR      73  72  96 CALM      29.95R
Augusta-Daniel MOCLDY    76  73  91 SE5       29.98R
Swainsboro     FAIR      75  70  83 S7        29.98S
Vidalia        FAIR      73  66  78 SE3       29.96S
Eastman        FAIR      74  66  75 CALM      29.98R
Hazlehurst       N/A     76  67  74 SE3       29.94S
Alma           FAIR      75  68  78 SE3       29.95R
Waycross       FAIR      73  70  91 E3        29.94S
Jesup          FAIR      73  69  86 CALM      29.96S
Baxley         FAIR      72  72 100 CALM      29.95S
Brunswick      MOCLDY    77  70  78 SE6       29.96S
Saint Simons   MOCLDY    78  70  76 SE10      29.95S

$$

SCZ027-028-034-036>038-045-046-048>050-GAZ119-141-270400-
...Lake and Supplemental Coastal Observations...

STATION/POSITION TIME  TEMP    WIND        PRES    WAVE   SWELL
                       AIR SEA DIR/SP/G            HT/PER HT/PER/DIR
                 (UTC) (F)     (DEG/KT/KT) (MB)    (FT/S) (FT/S/D)
Winyah Bay       0245   76     210/  5     1016.0S
Lake Murray      0220   79     170/ 11/ 13 1013.5
ACE Basin NERRS  0245   78        CALM     1015.0S
Fort Pulaski     0300   77 80  160/  5/  8 1015.3
Sapelo Island    0300   76     140/  5     1014.0

$$

ANZ835-935-AMZ111-154-330-350-352-354-370-450-454-472-270400-
...C-MAN and Buoy Observations...

STATION/POSITION TIME  TEMP    WIND        PRES    WAVE   SWELL
                       AIR SEA DIR/SP/G            HT/PER HT/PER/DIR
                 (UTC) (F)     (DEG/KT/KT) (MB)    (FT/S) (FT/S/D)
Buoy 41004       0300      77  160/  8/ 10 1016.0
Buoy 41008       0250   77 77  130/  8/ 10 1014.5R   2/ 9   2/110/ 9
Folly Beach CMAN 0300   78     160/ 12/ 13 1016.2R
Capers Nearshore 0308   78 78  180/ 10/ 14 1016.8R
Fripp Nearshore  0308   78 80  180/ 12/ 16 1015.0R


STATION/POSITION TIME  TEMP    WIND        PRES    WAVE   SWELL
                       AIR SEA DIR/SP/G            HT/PER HT/PER/DIR
                 (UTC) (F)     (DEG/KT/KT) (MB)    (FT/S) (FT/S/D)
5E St. Marys GA  0300      78                N/A     3/ 4
Frying Pan Buoy  0300   78 78  180/ 14/ 17 1016.4
Buoy 41025       0310   78 78  210/ 16/ 17 1016.6
Cape Lookout NC  0300          210/  8/ 11 1016.6R
Buoy 41002       0310      79  160/ 10/ 12 1018.0
Buoy 41010       0310   76 78  160/ 16/ 23 1014.8
St Augustine FL  0300   78 79  150/ 14/ 15 1013.5R


$$




USA.gov is the U.S. government's official web portal to all federal, state and local government web resources and services.